Location: Newark
(25.6108°S, 54.5803°W)
Time: 12:57:14
(UTC+00:00)

Courier 1B Rocket - Pass Details

Date: 05 November 2020
Orbit: 920 x 1202 km, 28.2° (Epoch: 01 December)

Event Time Altitude Azimuth Distance (km) Brightness Sun altitude
Rises 08:55:45 0° 266° (W) 4,072 7.6 1.1°
Reaches altitude 10° 08:58:40 10° 263° (W) 3,086 7.1 1.7°
Maximum altitude 09:06:20 72° 179° (S) 1,175 5.7 3.4°
Drops below altitude 10° 09:13:29 10° 94° (E) 2,891 9.7 4.9°
Sets 09:16:08 0° 92° (E) 3,802 10.1 5.5°
